Boston, MA

10:59 PM EST on February 10, 2016 (GMT -0500)
East Milton

Weather History for KMQE - March, 2013

Change the Weather History Date:

Wednesday, March 20, 2013

  Actual Average (KBOS) Record (KBOS)
Temperature  
Mean Temperature 28 °F 39 °F  
Max Temperature 37 °F 46 °F 79 °F (1945)
Min Temperature 21 °F 32 °F 10 °F (1885)
Degree Days  
Heating Degree Days 36 26  
Month to date heating degree days 565  
Since 1 July heating degree days 4607  
Cooling Degree Days 0 0  
Month to date cooling degree days 0  
Year to date cooling degree days 0  
Moisture  
Dew Point 18 °F    
Average Humidity 63    
Maximum Humidity 92    
Minimum Humidity 41    
Precipitation  
Precipitation 0.00 in 0.15 in 1.58 in (1881)
Month to date precipitation 2.70  
Year to date precipitation 9.31  
Sea Level Pressure  
Sea Level Pressure 29.76 in    
Wind  
Wind Speed 14 mph (West)    
Max Wind Speed 23 mph    
Max Gust Speed 36 mph    
T = Trace of Precipitation, MM = Missing Value Source: NWS Daily Summary

Daily Weather History Graph

Daily Weather History Graph

Search for Another Location

Airport or City:

Trip Planner

Search our weather history database for the weather conditions in past years. The results will help you decide how hot, cold, wet, or windy it might be!

Date:

Astronomy

Mar. 20, 2013 Rise Set
Actual Time 6:47 AM EDT 6:56 PM EDT
Civil Twilight 6:19 AM EDT 7:24 PM EDT
Nautical Twilight 5:46 AM EDT 7:57 PM EDT
Astronomical Twilight 5:13 AM EDT 8:31 PM EDT
Moon 12:23 PM EDT (3/20) 2:30 AM EDT (3/20)
Length of Visible Light 13h 05m
Length of Day
12h 09m
First Quarter, 59% of the Moon is Illuminated
Mar 20
First Quarter
Mar 27
Full
Apr 3
Last Quarter
Apr 10
New
Apr 18
First Quarter

Hourly Weather History & Observations

Time (EDT) Temp. Windchill Dew Point Humidity Pressure Visibility Wind Dir Wind Speed Gust Speed Precip Events Conditions
12:54 AM 26.1 °F 13.6 °F 24.1 °F 92% 29.71 in - NW 16.1 mph 23.0 mph N/A   Unknown
1:00 AM - - - N/A% - - North - - N/A   Unknown
1:54 AM 24.1 °F 12.0 °F 21.9 °F 91% 29.71 in - NW 13.8 mph 20.7 mph N/A   Unknown
2:54 AM 24.1 °F 14.4 °F 21.0 °F 88% 29.73 in - WNW 9.2 mph 18.4 mph N/A   Unknown
3:54 AM 21.9 °F 11.7 °F 19.9 °F 92% 29.73 in - WNW 9.2 mph - N/A   Unknown
4:54 AM 25.0 °F 13.1 °F 21.9 °F 88% 29.74 in - West 13.8 mph - N/A   Unknown
5:54 AM 24.1 °F 11.5 °F 19.9 °F 84% 29.75 in - West 15.0 mph 20.7 mph N/A   Unknown
6:54 AM 24.1 °F 10.1 °F 18.0 °F 77% 29.75 in - West 18.4 mph 27.6 mph N/A   Unknown
7:54 AM 24.1 °F 10.6 °F 19.0 °F 81% 29.75 in - West 17.3 mph 27.6 mph N/A   Unknown
8:54 AM 27.0 °F 14.3 °F 19.0 °F 72% 29.75 in - West 17.3 mph 32.2 mph N/A   Unknown
9:54 AM 30.0 °F 19.1 °F 19.0 °F 64% 29.76 in - West 15.0 mph 27.6 mph N/A   Unknown
10:54 AM 30.9 °F 17.8 °F 18.0 °F 59% 29.75 in - West 23.0 mph 34.5 mph N/A   Unknown
11:54 AM 32.0 °F 19.5 °F 18.0 °F 56% 29.76 in - West 21.9 mph 29.9 mph N/A   Unknown
12:54 PM 33.1 °F 23.0 °F 16.0 °F 50% 29.77 in - West 15.0 mph 25.3 mph N/A   Unknown
1:54 PM 36.0 °F 26.3 °F 14.0 °F 41% 29.76 in - WNW 16.1 mph 27.6 mph N/A   Unknown
2:54 PM 36.0 °F 25.3 °F 15.1 °F 43% 29.74 in - West 19.6 mph 35.7 mph N/A   Unknown
3:54 PM 36.0 °F 26.0 °F 15.1 °F 43% 29.75 in - West 17.3 mph 34.5 mph N/A   Unknown
4:54 PM 36.0 °F 27.1 °F 15.1 °F 43% 29.75 in - West 13.8 mph 25.3 mph N/A   Unknown
5:54 PM 35.1 °F 26.4 °F 16.0 °F 46% 29.78 in - West 12.7 mph 26.5 mph N/A   Unknown
6:54 PM 34.0 °F 25.5 °F 16.0 °F 48% 29.80 in - West 11.5 mph - N/A   Unknown
7:54 PM 33.1 °F 25.5 °F 16.0 °F 50% 29.81 in - SW 9.2 mph - N/A   Unknown
8:54 PM 32.0 °F 24.2 °F 15.1 °F 50% 29.81 in - West 9.2 mph - N/A   Unknown
9:54 PM 32.0 °F 24.8 °F 14.0 °F 48% 29.83 in - WSW 8.1 mph - N/A   Unknown
10:54 PM 32.0 °F 24.8 °F 14.0 °F 48% 29.83 in - WSW 8.1 mph - N/A   Unknown
11:54 PM 30.9 °F 22.8 °F 15.1 °F 52% 29.82 in - West 9.2 mph - N/A   Unknown